Location: Asheville, NC
(35.6000°N, 82.5500°W)
Time: 19:16:58
(UTC-04:00)

Vanguard 3 - Pass Details

Date: 12 February 2018
Orbit: 507 x 3264 km, 33.4° (Epoch: 27 May)

Event Time Altitude Azimuth Distance (km) Brightness Sun altitude
Rises 22:43:45 0° 275° (W) 3,279 - -55.0°
Reaches altitude 10° 22:45:50 10° 269° (W) 2,567 - -55.3°
Maximum altitude 22:51:44 48° 196° (SSW) 1,608 - -56.3°
Drops below altitude 10° 23:02:02 10° 127° (SE) 4,402 - -58.0°
Sets 23:06:44 0° 123° (ESE) 5,871 - -58.8°
